1529265600.63,58266,18.44,74048.8,2.53,-20.49,-20.93,0,*71
1529265601.86,58267,18.44,74050.8,2.57,-20.59,-21.03,0,*7D
1529265603.09,58268,18.44,74054.8,2.53,-20.73,-21.23,0,*7C
1529265604.32,58269,18.44,74054.8,2.53,-20.79,-21.39,0,*7C
1529265605.54,58270,18.44,74050.5,2.53,-20.73,-21.27,0,*71
1529265606.77,58271,18.44,74058.3,2.53,-20.73,-21.27,0,*70
1529265607.97,58272,18.44,74060.0,2.53,-20.73,-21.39,0,*7C
1529265609.2,58273,18.38,74060.8,2.53,-20.89,-21.53,0,*74
1529265610.42,58274,18.44,74062.5,2.53,-20.89,-21.53,0,*73
1529265611.65,58275,18.44,74064.0,2.53,-20.73,-21.23,0,*70
1529265612.89,58276,18.44,74064.5,2.53,-20.73,-21.23,0,*73
1529265614.09,58277,18.38,74060.5,2.53,-20.93,-21.39,0,*77
1529265615.29,58278,18.44,74058.0,2.53,-20.89,-21.43,0,*7E
1529265616.51,58279,18.38,74054.3,2.57,-20.83,-21.39,0,*7C
1529265617.74,58280,18.44,74050.0,2.51,-20.93,-21.47,0,*74
1529265618.98,58281,18.44,74038.0,2.51,-20.83,-21.43,0,*70
1529265620.23,58282,18.44,74038.5,2.53,-20.79,-21.53,0,*75
1529265621.45,58283,18.38,74044.3,2.53,-20.93,-21.57,0,*74
1529265622.7,58284,18.44,74046.0,2.51,-20.79,-21.17,0,*71
1529265623.91,58285,18.44,74044.3,2.53,-20.59,-21.13,0,*74
1529265625.14,58286,18.38,74034.5,2.53,-20.63,-21.23,0,*7D
1529265626.42,58287,18.44,74036.5,2.51,-20.83,-21.33,0,*71
1529265627.66,58288,18.38,74038.8,2.51,-20.83,-21.43,0,*79
1529265628.94,58289,18.44,74042.8,2.51,-20.79,-21.33,0,*7A
1529265630.14,58290,18.44,74050.0,2.53,-20.59,-21.09,0,*7B
1529265631.34,58291,18.44,74042.3,2.53,-20.63,-21.13,0,*78
1529265632.57,58292,18.44,74032.0,2.53,-20.73,-21.27,0,*7D
1529265633.84,58293,18.38,74034.3,2.51,-20.79,-21.27,0,*74
1529265635.04,58294,18.38,74036.8,2.53,-20.63,-21.13,0,*7D
1529265636.24,58295,18.44,74042.0,2.57,-20.69,-21.17,0,*76
1529265637.47,58296,18.44,74050.3,2.53,-20.73,-21.23,0,*7D
1529265638.67,58297,18.44,74050.0,2.53,-20.73,-21.13,0,*7F
1529265639.87,58298,18.44,74052.3,2.53,-20.63,-21.13,0,*71
1529265641.12,58299,18.44,74050.0,2.53,-20.49,-20.99,0,*7B
1529265642.32,58300,18.44,74054.3,2.53,-20.63,-21.09,0,*7A
1529265643.54,58301,18.44,74056.8,2.53,-20.49,-21.09,0,*73
1529265644.75,58302,18.38,74060.5,2.53,-20.43,-20.93,0,*78
1529265645.96,58303,18.38,74060.0,2.53,-20.59,-21.13,0,*7B
1529265647.19,58304,18.44,74062.5,2.57,-20.59,-21.23,0,*7B
1529265648.43,58305,18.44,74056.8,2.53,-20.63,-21.23,0,*77
1529265649.65,58306,18.44,74052.0,2.57,-20.73,-21.33,0,*70
1529265650.87,58307,18.44,74048.3,2.57,-20.73,-21.27,0,*74
1529265652.1,58308,18.44,74048.8,2.53,-20.89,-21.53,0,*79
1529265653.33,58309,18.44,74046.8,2.57,-20.83,-21.39,0,*7A
1529265654.53,58310,18.38,74040.0,2.53,-20.89,-21.43,0,*71
1529265655.76,58311,18.38,74038.3,2.53,-20.73,-21.23,0,*73
1529265656.95,58312,18.44,74042.8,2.57,-20.69,-21.09,0,*77
1529265658.19,58313,18.38,74040.8,2.53,-20.63,-21.23,0,*70
1529265659.41,58314,18.38,74042.8,2.53,-20.73,-21.27,0,*72
1529265660.64,58315,18.44,74042.8,2.53,-20.73,-21.23,0,*77
1529265661.84,58316,18.38,74040.0,2.53,-20.73,-21.13,0,*77
1529265663.07,58317,18.38,74042.5,2.53,-20.73,-21.23,0,*75
1529265664.27,58318,18.44,74042.5,2.53,-20.73,-21.13,0,*79
1529265665.5,58319,18.38,74046.0,2.53,-20.73,-21.23,0,*7B
1529265666.69,58320,18.38,74046.5,2.53,-20.73,-21.13,0,*72
1529265667.9,58321,18.38,74044.0,2.53,-20.63,-21.13,0,*72
1529265669.1,58322,18.44,74048.5,2.53,-20.63,-21.13,0,*71
1529265670.3,58323,18.44,74048.8,2.53,-20.59,-21.09,0,*72
1529265671.5,58324,18.44,74052.8,2.53,-20.59,-21.09,0,*75
1529265672.74,58325,18.44,74050.3,2.53,-20.63,-21.23,0,*75
1529265673.93,58326,18.44,74054.0,2.53,-20.73,-21.13,0,*74
1529265675.14,58327,18.38,74048.8,2.53,-20.59,-21.09,0,*76
1529265676.37,58328,18.38,74048.5,2.57,-20.59,-21.03,0,*77
1529265677.59,58329,18.44,74052.8,2.57,-20.59,-21.03,0,*76
1529265678.8,58330,18.38,74054.0,2.53,-20.63,-21.13,0,*72
1529265680.0,58331,18.44,74052.5,2.53,-20.59,-21.13,0,*7A
1529265681.2,58332,18.44,74052.5,2.53,-20.43,-21.09,0,*79
1529265682.41,58333,18.38,74054.0,2.53,-20.59,-21.13,0,*78
1529265683.61,58334,18.44,74056.8,2.53,-20.63,-21.13,0,*76
1529265684.82,58335,18.44,74054.3,2.53,-20.59,-21.13,0,*7E
1529265686.02,58336,18.44,74058.8,2.57,-20.43,-20.93,0,*7B
1529265687.27,58337,18.44,74058.8,2.57,-20.53,-21.03,0,*73
1529265688.52,58338,18.44,74060.5,2.53,-20.49,-20.99,0,*71
1529265689.73,58339,18.44,74062.8,2.57,-20.39,-20.89,0,*72
1529265690.94,58340,18.38,74058.5,2.53,-20.59,-21.09,0,*77
1529265692.19,58341,18.44,74064.3,2.57,-20.53,-21.03,0,*72
1529265693.41,58342,18.38,74068.8,2.57,-20.53,-20.93,0,*79
1529265694.61,58343,18.38,74074.0,2.53,-20.59,-21.09,0,*74
1529265695.81,58344,18.38,74072.3,2.57,-20.59,-21.09,0,*77
1529265697.01,58345,18.44,74074.8,2.57,-20.59,-21.09,0,*76
1529265698.21,58346,18.44,74070.5,2.57,-20.59,-21.09,0,*75
1529265699.44,58347,18.44,74066.3,2.57,-20.73,-21.23,0,*74
1529265700.67,58348,18.38,74060.5,2.57,-20.73,-21.23,0,*7B
1529265701.86,58349,18.38,74060.3,2.57,-20.73,-21.13,0,*79
1529265703.06,58350,18.38,74058.8,2.57,-20.69,-21.17,0,*7E
1529265704.32,58351,18.38,74060.0,2.59,-20.73,-21.23,0,*7D
1529265705.52,58352,18.38,74058.5,2.57,-20.69,-21.17,0,*7C
1529265706.71,58353,18.44,74062.5,2.57,-20.69,-21.09,0,*72
1529265707.91,58354,18.44,74060.3,2.57,-20.59,-21.09,0,*76
1529265709.15,58355,18.38,74062.0,2.53,-20.63,-21.23,0,*72
1529265710.4,58356,18.44,74064.0,2.59,-20.73,-21.23,0,*7A
1529265711.63,58357,18.38,74066.0,2.59,-20.69,-21.17,0,*77
1529265712.84,58358,18.38,74070.5,2.57,-20.73,-21.33,0,*7B
1529265714.07,58359,18.44,74068.3,2.53,-20.73,-21.23,0,*7F
1529265715.3,58360,18.44,74068.0,2.57,-20.83,-21.39,0,*75
1529265716.5,58361,18.38,74064.3,2.57,-20.89,-21.39,0,*7E
1529265717.73,58362,18.38,74064.0,2.57,-20.83,-21.39,0,*77
1529265719.0,58363,18.38,74060.3,2.59,-20.83,-21.33,0,*72
1529265720.22,58364,18.44,74062.5,2.59,-20.73,-21.39,0,*70
1529265721.45,58365,18.38,74054.3,2.57,-20.83,-21.39,0,*70
1529265722.65,58366,18.38,74048.8,2.57,-20.89,-21.47,0,*70
1529265723.85,58367,18.44,74052.5,2.57,-20.89,-21.39,0,*78
1529265725.05,58368,18.44,74050.0,2.57,-20.69,-21.09,0,*7A
1529265726.27,58369,18.44,74052.0,2.57,-20.73,-21.23,0,*78
1529265727.5,58370,18.44,74048.5,2.59,-20.89,-21.39,0,*70
1529265728.72,58371,18.44,74044.5,2.57,-21.09,-21.53,0,*7A
1529265729.94,58372,18.44,74044.3,2.59,-21.17,-21.63,0,*7B
1529265731.17,58373,18.38,74042.0,2.57,-21.17,-21.67,0,*70
1529265732.36,58374,18.38,74038.0,2.57,-21.09,-21.63,0,*7C
1529265733.59,58375,18.38,74040.5,2.57,-21.17,-21.67,0,*76
1529265734.82,58376,18.44,74040.0,2.59,-21.17,-21.77,0,*7A
1529265736.04,58377,18.38,74038.8,2.57,-21.09,-21.67,0,*7B
1529265737.29,58378,18.44,74040.5,2.53,-21.23,-21.83,0,*72
1529265738.52,58379,18.38,74036.8,2.53,-21.23,-21.73,0,*7C
1529265739.74,58380,18.44,74040.8,2.53,-21.23,-21.73,0,*7A
1529265740.96,58381,18.44,74044.0,2.53,-21.23,-21.73,0,*7B
1529265742.22,58382,18.44,74044.3,2.53,-21.27,-21.83,0,*73
1529265743.44,58383,18.44,74042.3,2.57,-21.17,-21.83,0,*75
1529265744.64,58384,18.38,74042.0,2.53,-21.13,-21.73,0,*7D
1529265745.86,58385,18.44,74050.5,2.53,-21.23,-21.73,0,*7F
1529265747.08,58386,18.38,74050.5,2.53,-21.23,-21.73,0,*7C
1529265748.3,58387,18.44,74056.5,2.53,-21.09,-21.57,0,*73
1529265749.5,58388,18.38,74052.8,2.53,-20.93,-21.43,0,*7B
1529265750.72,58389,18.44,74054.0,2.53,-20.93,-21.53,0,*7B
1529265751.94,58390,18.44,74054.8,2.57,-20.93,-21.53,0,*77
1529265753.17,58391,18.44,74050.8,2.57,-20.89,-21.33,0,*7B
1529265754.39,58392,18.44,74054.8,2.53,-20.93,-21.53,0,*71
1529265755.64,58393,18.38,74052.5,2.51,-20.83,-21.43,0,*72
1529265756.89,58394,18.38,74054.3,2.51,-20.83,-21.43,0,*75
1529265758.14,58395,18.38,74054.0,2.51,-20.83,-21.47,0,*70
1529265759.34,58396,18.44,74054.3,2.53,-20.89,-21.43,0,*7F
1529265760.54,58397,18.44,74058.5,2.53,-20.89,-21.43,0,*7E
1529265761.77,58398,18.38,74052.8,2.53,-20.93,-21.53,0,*7B
1529265762.99,58399,18.44,74056.5,2.53,-20.93,-21.53,0,*7A
1529265764.22,58400,18.44,74060.5,2.53,-20.93,-21.53,0,*7D
1529265765.44,58401,18.44,74058.0,2.53,-20.93,-21.57,0,*78
1529265766.68,58402,18.44,74058.8,2.53,-20.99,-21.57,0,*71
1529265767.91,58403,18.38,74056.5,2.53,-21.09,-21.67,0,*7B
1529265769.13,58404,18.38,74060.3,2.49,-21.03,-21.73,0,*78
1529265770.36,58405,18.38,74062.8,2.53,-21.09,-21.67,0,*7D
1529265771.56,58406,18.38,74056.0,2.49,-21.13,-21.77,0,*7F
1529265772.78,58407,18.38,74050.5,2.51,-21.13,-21.73,0,*73
1529265773.98,58408,18.44,74038.8,2.49,-21.17,-21.73,0,*71
1529265775.2,58409,18.38,74032.3,2.51,-21.17,-21.73,0,*79
1529265776.45,58410,18.38,74036.5,2.53,-21.23,-21.83,0,*7B
1529265777.73,58411,18.44,74050.5,2.51,-21.27,-21.87,0,*78
1529265778.93,58412,18.44,74048.8,2.49,-21.13,-21.77,0,*7A
1529265780.15,58413,18.38,74050.8,2.49,-21.03,-21.73,0,*7E
1529265781.38,58414,18.38,74054.3,2.49,-20.99,-21.63,0,*7A
1529265782.61,58415,18.38,74050.8,2.49,-20.99,-21.47,0,*7D
1529265783.86,58416,18.38,74044.3,2.49,-20.99,-21.57,0,*7F
1529265785.11,58417,18.38,74046.8,2.51,-21.03,-21.63,0,*72
1529265786.33,58418,18.38,74044.3,2.49,-21.03,-21.63,0,*74
1529265787.58,58419,18.38,74046.3,2.51,-21.03,-21.73,0,*7D
1529265788.78,58420,18.38,74048.5,2.49,-21.13,-21.63,0,*7E
1529265790.03,58421,18.38,74052.3,2.51,-21.03,-21.63,0,*77
1529265791.25,58422,18.38,74048.3,2.49,-20.99,-21.63,0,*7F
1529265792.48,58423,18.38,74044.8,2.49,-20.99,-21.63,0,*7E
1529265793.73,58424,18.38,74042.5,2.49,-21.03,-21.57,0,*7C
1529265794.95,58425,18.38,74050.5,2.49,-21.03,-21.63,0,*7A
1529265796.17,58426,18.38,74050.0,2.49,-21.13,-21.57,0,*7F
1529265797.4,58427,18.38,74050.5,2.49,-21.03,-21.73,0,*79
1529265798.59,58428,18.44,74050.3,2.49,-21.13,-21.73,0,*77
1529265799.84,58429,18.44,74048.0,2.51,-21.03,-21.63,0,*7F
1529265801.04,58430,18.44,74050.8,2.49,-20.93,-21.47,0,*70
1529265802.29,58431,18.38,74052.8,2.49,-20.79,-21.33,0,*76
1529265803.54,58432,18.38,74052.5,2.51,-20.83,-21.43,0,*7E
1529265804.76,58433,18.38,74056.5,2.49,-20.83,-21.43,0,*76
1529265806.01,58434,18.38,74056.0,2.51,-20.83,-21.47,0,*7C
1529265807.24,58435,18.44,74058.8,2.49,-20.99,-21.63,0,*79
1529265808.46,58436,18.38,74056.8,2.53,-20.93,-21.53,0,*78
1529265809.69,58437,18.38,74060.8,2.49,-20.93,-21.57,0,*76
1529265810.91,58438,18.44,74066.8,2.49,-20.83,-21.47,0,*79
1529265812.11,58439,18.44,74066.5,2.49,-20.93,-21.47,0,*79
1529265813.33,58440,18.38,74058.5,2.49,-20.93,-21.57,0,*76
1529265814.58,58441,18.38,74056.0,2.51,-20.99,-21.63,0,*73
1529265815.81,58442,18.38,74052.3,2.49,-20.99,-21.63,0,*79
1529265817.04,58443,18.44,74054.3,2.49,-21.03,-21.77,0,*7F
1529265818.26,58444,18.38,74050.8,2.49,-21.03,-21.73,0,*7C
1529265819.51,58445,18.38,74052.3,2.49,-20.99,-21.57,0,*79
1529265820.74,58446,18.38,74042.8,2.49,-20.99,-21.47,0,*7B
1529265821.96,58447,18.38,74040.3,2.49,-20.93,-21.57,0,*71
1529265823.21,58448,18.44,74046.8,2.49,-20.99,-21.57,0,*74
1529265824.43,58449,18.38,74040.0,2.49,-20.93,-21.57,0,*7F
1529265825.65,58450,18.38,74042.0,2.49,-20.93,-21.57,0,*77
1529265826.87,58451,18.38,74040.3,2.49,-20.93,-21.57,0,*76
1529265828.1,58452,18.38,74040.5,2.49,-20.79,-21.47,0,*70
1529265829.34,58453,18.38,74040.8,2.49,-20.79,-21.33,0,*72
1529265830.57,58454,18.44,74046.5,2.49,-20.83,-21.43,0,*77
1529265831.8,58455,18.44,74048.5,2.49,-20.83,-21.47,0,*72
1529265833.02,58456,18.38,74052.5,2.49,-20.83,-21.43,0,*75
1529265834.27,58457,18.44,74052.0,2.49,-20.79,-21.33,0,*76
1529265835.49,58458,18.38,74050.8,2.49,-20.79,-21.43,0,*7E
1529265836.71,58459,18.38,74052.8,2.49,-20.83,-21.43,0,*7A
1529265837.94,58460,18.38,74054.0,2.51,-20.63,-21.17,0,*76
1529265839.17,58461,18.38,74056.3,2.51,-20.63,-21.17,0,*77
1529265840.42,58462,18.44,74056.0,2.49,-20.35,-20.83,0,*72
1529265841.67,58463,18.38,74044.5,2.51,-20.53,-21.13,0,*72
1529265842.92,58464,18.38,74038.3,2.51,-20.63,-21.27,0,*71
1529265844.13,58465,18.38,74038.0,2.49,-20.63,-21.13,0,*7E
1529265845.4,58466,18.44,74044.5,2.51,-20.53,-21.03,0,*76
1529265846.63,58467,18.38,74044.5,2.49,-20.39,-20.99,0,*70
1529265847.85,58468,18.44,74048.0,2.49,-20.25,-20.79,0,*7C
1529265849.1,58469,18.44,74046.0,2.51,-20.35,-20.93,0,*71
1529265850.3,58470,18.38,74042.3,2.53,-20.59,-21.09,0,*73
1529265851.55,58471,18.38,74044.3,2.51,-20.35,-20.93,0,*78
1529265852.79,58472,18.38,74046.0,2.51,-20.19,-20.69,0,*70
1529265854.02,58473,18.38,74050.5,2.53,-20.15,-20.63,0,*75
1529265855.21,58474,18.38,74044.3,2.53,-20.29,-20.73,0,*7C
1529265856.44,58475,18.38,74048.0,2.53,-20.15,-20.59,0,*7A
1529265857.67,58476,18.44,74050.8,2.57,-20.39,-20.99,0,*7F
1529265858.9,58477,18.38,74052.0,2.53,-20.59,-20.99,0,*7C
1529265860.11,58478,18.44,74058.3,2.53,-20.43,-20.93,0,*72
1529265861.34,58479,18.38,74052.8,2.57,-20.53,-20.93,0,*76
1529265862.57,58480,18.38,74052.8,2.57,-20.59,-21.03,0,*72
1529265863.77,58481,18.38,74054.3,2.53,-20.63,-21.13,0,*7F
1529265864.97,58482,18.38,74052.0,2.53,-20.63,-21.13,0,*7C
1529265866.19,58483,18.38,74056.5,2.57,-20.53,-21.09,0,*71
1529265867.4,58484,18.38,74058.0,2.57,-20.39,-20.89,0,*73
1529265868.63,58485,18.38,74062.5,2.57,-20.43,-21.03,0,*7C
1529265869.83,58486,18.38,74066.0,2.57,-20.69,-21.17,0,*72
1529265871.05,58487,18.44,74062.3,2.57,-20.69,-21.33,0,*75
1529265872.28,58488,18.38,74060.0,2.57,-20.89,-21.33,0,*74
1529265873.55,58489,18.38,74066.5,2.59,-20.83,-21.33,0,*71
1529265874.8,58490,18.38,74066.5,2.59,-20.73,-21.23,0,*77
1529265876.03,58491,18.38,74062.3,2.53,-20.79,-21.39,0,*7D
1529265877.25,58492,18.38,74058.0,2.59,-20.69,-21.17,0,*79
1529265878.51,58493,18.38,74054.0,2.57,-20.83,-21.23,0,*75
1529265879.74,58494,18.38,74056.0,2.57,-20.83,-21.39,0,*79
1529265880.96,58495,18.38,74056.8,2.57,-20.83,-21.39,0,*78
1529265882.19,58496,18.38,74058.3,2.53,-20.79,-21.39,0,*7A
1529265883.43,58497,18.38,74052.3,2.57,-20.83,-21.33,0,*70
1529265884.63,58498,18.44,74052.5,2.57,-20.89,-21.43,0,*72
1529265885.85,58499,18.38,74052.0,2.53,-20.93,-21.57,0,*79
1529265887.08,58500,18.44,74056.8,2.53,-20.93,-21.53,0,*7C
1529265888.3,58501,18.38,74058.3,2.57,-20.89,-21.53,0,*72
1529265889.51,58502,18.38,74056.3,2.57,-20.89,-21.39,0,*7D
1529265890.73,58503,18.44,74060.5,2.53,-20.83,-21.43,0,*7F
1529265891.93,58504,18.38,74060.0,2.57,-20.89,-21.39,0,*7B
1529265893.15,58505,18.38,74060.5,2.57,-20.73,-21.33,0,*75
1529265894.4,58506,18.38,74062.5,2.57,-20.83,-21.33,0,*79
1529265895.62,58507,18.38,74064.5,2.53,-20.93,-21.53,0,*7B
1529265896.82,58508,18.44,74064.5,2.57,-20.73,-21.39,0,*72
1529265898.04,58509,18.44,74062.5,2.53,-20.93,-21.53,0,*75
1529265899.27,58510,18.38,74062.0,2.53,-20.93,-21.57,0,*79
1529265900.51,58511,18.38,74064.0,2.57,-20.83,-21.33,0,*7F
1529265901.72,58512,18.38,74066.3,2.57,-20.89,-21.39,0,*7C
1529265902.91,58513,18.38,74068.0,2.57,-20.93,-21.39,0,*76
1529265904.12,58514,18.38,74068.5,2.53,-20.89,-21.43,0,*73
1529265905.31,58515,18.38,74070.3,2.53,-20.93,-21.43,0,*79
1529265906.54,58516,18.38,74062.5,2.53,-20.93,-21.53,0,*7B
1529265907.76,58517,18.38,74054.0,2.53,-20.93,-21.53,0,*7A
1529265908.96,58518,18.38,74052.8,2.53,-20.89,-21.43,0,*7F
1529265910.17,58519,18.38,74048.0,2.53,-20.89,-21.39,0,*73
1529265911.39,58520,18.38,74044.5,2.53,-20.93,-21.53,0,*7E
1529265912.64,58521,18.38,74048.0,2.53,-20.99,-21.53,0,*75
1529265913.89,58522,18.38,74052.0,2.53,-20.99,-21.57,0,*72
1529265915.14,58523,18.38,74052.5,2.53,-20.99,-21.53,0,*77
1529265916.37,58524,18.38,74056.3,2.53,-20.99,-21.43,0,*71
1529265917.62,58525,18.38,74056.3,2.53,-20.99,-21.53,0,*71
1529265918.82,58526,18.38,74056.5,2.53,-20.93,-21.43,0,*79
1529265920.02,58527,18.38,74060.5,2.53,-20.93,-21.43,0,*78
1529265921.24,58528,18.38,74062.3,2.53,-20.93,-21.53,0,*76
1529265922.44,58529,18.38,74062.5,2.53,-20.89,-21.43,0,*7D
1529265923.67,58530,18.38,74060.5,2.53,-20.89,-21.53,0,*74
1529265924.89,58531,18.38,74066.3,2.53,-20.93,-21.53,0,*7E
1529265926.14,58532,18.38,74058.3,2.53,-20.99,-21.57,0,*73
1529265927.39,58533,18.38,74062.5,2.53,-20.99,-21.57,0,*72
1529265928.61,58534,18.38,74060.3,2.51,-20.93,-21.47,0,*7C
1529265929.86,58535,18.38,74062.0,2.51,-20.79,-21.43,0,*7D
1529265931.11,58536,18.38,74052.8,2.49,-20.83,-21.33,0,*75
1529265932.36,58537,18.38,74052.5,2.49,-20.83,-21.33,0,*74
1529265933.61,58538,18.38,74048.5,2.51,-20.99,-21.47,0,*7A
1529265934.86,58539,18.38,74054.5,2.51,-21.03,-21.47,0,*79
1529265936.11,58540,18.38,74054.8,2.49,-20.79,-21.33,0,*71
1529265937.36,58541,18.38,74056.5,2.49,-20.83,-21.33,0,*75
1529265938.59,58542,18.38,74058.8,2.51,-20.93,-21.47,0,*7D
1529265939.81,58543,18.38,74060.5,2.49,-20.83,-21.43,0,*70
1529265941.08,58544,18.38,74056.8,2.51,-20.79,-21.33,0,*7C
1529265942.33,58545,18.38,74062.0,2.49,-20.83,-21.33,0,*71
1529265943.59,58546,18.38,74058.8,2.49,-20.83,-21.27,0,*77
1529265944.81,58547,18.38,74060.3,2.49,-20.79,-21.43,0,*71
1529265946.04,58548,18.38,74058.0,2.49,-20.79,-21.17,0,*7F
1529265947.29,58549,18.38,74058.8,2.49,-20.83,-21.33,0,*7D
1529265948.51,58550,18.38,74060.0,2.49,-20.83,-21.43,0,*72
1529265949.71,58551,18.38,74060.8,2.49,-20.93,-21.47,0,*76
1529265950.91,58552,18.38,74062.0,2.49,-20.93,-21.43,0,*71
1529265952.17,58553,18.38,74060.5,2.49,-20.79,-21.27,0,*76
1529265953.44,58554,18.38,74058.5,2.51,-20.79,-21.27,0,*78
1529265954.67,58555,18.38,74060.8,2.49,-20.79,-21.17,0,*73
1529265955.92,58556,18.38,74062.3,2.49,-20.35,-20.99,0,*7F
1529265957.16,58557,18.44,74062.8,2.51,-20.49,-21.13,0,*7F
1529265958.42,58558,18.38,74056.3,2.49,-20.49,-21.03,0,*78
1529265959.65,58559,18.38,74056.8,2.49,-20.69,-21.27,0,*7D
1529265960.9,58560,18.38,74060.8,2.49,-20.83,-21.33,0,*76
1529265962.17,58561,18.38,74060.5,2.51,-20.79,-21.27,0,*7E
1529265963.42,58562,18.38,74060.8,2.51,-20.79,-21.17,0,*7E
1529265964.65,58563,18.38,74062.5,2.49,-20.69,-21.27,0,*74
1529265965.88,58564,18.38,74066.5,2.51,-20.69,-21.17,0,*79
1529265967.11,58565,18.38,74068.8,2.49,-20.79,-21.17,0,*70
1529265968.38,58566,18.38,74068.0,2.51,-20.79,-21.27,0,*79
1529265969.61,58567,18.38,74062.5,2.51,-20.69,-21.17,0,*7A
1529265970.84,58568,18.38,74058.3,2.49,-20.79,-21.17,0,*7D
1529265972.07,58569,18.38,74052.5,2.49,-20.69,-21.27,0,*7E
1529265973.32,58570,18.38,74048.5,2.49,-20.83,-21.33,0,*77
1529265974.57,58571,18.38,74050.5,2.51,-20.79,-21.17,0,*7C
1529265975.82,58572,18.38,74048.0,2.49,-20.79,-21.33,0,*70
1529265977.05,58573,18.38,74044.3,2.49,-20.69,-21.27,0,*75
1529265978.25,58574,18.44,74054.5,2.49,-20.63,-21.17,0,*7B
1529265979.48,58575,18.38,74052.0,2.51,-20.63,-21.17,0,*73
1529265980.71,58576,18.38,74056.0,2.51,-20.63,-21.17,0,*70
1529265981.96,58577,18.38,74052.0,2.49,-20.83,-21.33,0,*70
1529265983.21,58578,18.38,74060.0,2.49,-20.79,-21.27,0,*7F
1529265984.42,58579,18.38,74060.8,2.49,-20.69,-21.17,0,*7C
1529265985.62,58580,18.38,74060.3,2.49,-20.69,-21.13,0,*7E
1529265986.87,58581,18.38,74064.5,2.49,-20.53,-21.03,0,*77
1529265988.07,58582,18.38,74064.3,2.49,-20.69,-21.13,0,*7C
1529265989.29,58583,18.44,74070.0,2.51,-20.69,-21.13,0,*74
1529265990.55,58584,18.38,74066.0,2.49,-20.53,-20.99,0,*70
1529265991.8,58585,18.38,74062.0,2.51,-20.63,-21.03,0,*79
1529265993.03,58586,18.38,74060.8,2.49,-20.63,-21.03,0,*73
1529265994.23,58587,18.38,74060.5,2.49,-20.63,-21.13,0,*73
1529265995.43,58588,18.38,74062.0,2.49,-20.69,-21.13,0,*76
1529265996.66,58589,18.38,74062.0,2.49,-20.69,-21.27,0,*70
1529265997.92,58590,18.38,74062.3,2.49,-20.83,-21.27,0,*7C
1529265999.17,58591,18.38,74060.0,2.49,-20.83,-21.33,0,*78
1529266000.4,58592,18.38,74056.8,2.49,-20.83,-21.47,0,*78
1529266001.6,58593,18.38,74060.8,2.49,-20.93,-21.47,0,*78
1529266002.85,58594,18.38,74060.5,2.49,-20.99,-21.57,0,*74
1529266004.07,58595,18.44,74064.8,2.49,-20.99,-21.63,0,*72
1529266005.3,58596,18.38,74056.8,2.49,-20.83,-21.43,0,*78
1529266006.55,58597,18.38,74058.8,2.47,-20.83,-21.39,0,*7A
1529266007.8,58598,18.38,74062.5,2.47,-20.83,-21.47,0,*7C
1529266009.03,58599,18.38,74062.0,2.47,-20.89,-21.47,0,*77
1529266010.25,58600,18.38,74062.0,2.45,-20.89,-21.53,0,*73
1529266011.53,58601,18.38,74066.0,2.47,-21.03,-21.53,0,*73
1529266012.78,58602,18.38,74060.5,2.47,-21.03,-21.63,0,*73
1529266014.01,58603,18.38,74060.0,2.45,-21.03,-21.47,0,*76
1529266015.25,58604,18.44,74064.0,2.47,-21.03,-21.63,0,*75
1529266016.48,58605,18.38,74062.0,2.45,-20.99,-21.63,0,*74
1529266017.7,58606,18.38,74062.8,2.45,-20.99,-21.63,0,*77
1529266018.93,58607,18.38,74066.8,2.45,-20.99,-21.39,0,*79
1529266020.19,58608,18.38,74062.8,2.45,-20.83,-21.23,0,*76
1529266021.45,58609,18.38,74062.8,2.47,-20.73,-21.23,0,*7A
1529266022.67,58610,18.38,74066.0,2.45,-20.83,-21.47,0,*7D
1529266023.88,58611,18.38,74064.3,2.45,-20.89,-21.39,0,*7F
1529266025.14,58612,18.38,74062.0,2.45,-20.83,-21.23,0,*7D
1529266026.39,58613,18.38,74062.3,2.45,-20.83,-21.33,0,*7D
1529266027.59,58614,18.38,74066.5,2.45,-20.89,-21.39,0,*7A
1529266028.8,58615,18.38,74062.8,2.45,-20.89,-21.47,0,*72
1529266030.0,58616,18.38,74064.8,2.45,-20.89,-21.39,0,*78
1529266031.24,58617,18.38,74066.8,2.43,-20.89,-21.43,0,*72
1529266032.44,58618,18.38,74066.0,2.41,-20.93,-21.43,0,*74
1529266033.67,58619,18.38,74066.5,2.43,-20.89,-21.39,0,*71
1529266034.91,58620,18.38,74066.3,2.45,-20.89,-21.27,0,*72
1529266036.14,58621,18.38,74062.3,2.45,-20.69,-21.23,0,*79
1529266037.36,58622,18.38,74062.8,2.45,-20.73,-21.33,0,*70
1529266038.59,58623,18.38,74064.3,2.43,-20.89,-21.43,0,*75
1529266039.85,58624,18.38,74066.3,2.43,-20.93,-21.53,0,*78
1529266041.1,58625,18.38,74062.3,2.43,-20.89,-21.53,0,*72
1529266042.33,58626,18.38,74064.0,2.43,-20.93,-21.43,0,*7B
1529266043.61,58627,18.38,74066.0,2.43,-20.79,-21.27,0,*7C
1529266044.9,58628,18.38,74066.0,2.43,-20.79,-21.27,0,*73
1529266046.13,58629,18.38,74066.3,2.41,-20.73,-21.27,0,*7A
1529266047.34,58630,18.38,74062.3,2.41,-20.89,-21.39,0,*78
1529266048.54,58631,18.38,74064.8,2.41,-20.93,-21.43,0,*7F
1529266049.78,58632,18.38,74062.0,2.41,-20.89,-21.27,0,*75
1529266051.0,58633,18.38,74062.0,2.45,-20.73,-21.33,0,*70
1529266052.25,58634,18.38,74066.8,2.43,-20.79,-21.39,0,*71
1529266053.46,58635,18.38,74062.5,2.41,-20.89,-21.43,0,*70
1529266054.74,58636,18.38,74060.5,2.43,-20.79,-21.27,0,*7C
1529266055.95,58637,18.38,74062.3,2.41,-20.89,-21.39,0,*7F
1529266057.15,58638,18.38,74058.0,2.41,-20.93,-21.39,0,*7B
1529266058.41,58639,18.38,74058.3,2.43,-20.93,-21.53,0,*74
1529266059.64,58640,18.38,74058.3,2.41,-20.93,-21.53,0,*78
1529266060.89,58641,18.38,74058.5,2.41,-21.03,-21.57,0,*75
1529266062.14,58642,18.38,74060.0,2.41,-21.03,-21.53,0,*72
1529266063.4,58643,18.38,74066.0,2.43,-20.79,-21.39,0,*71
1529266064.6,58644,18.38,74064.0,2.41,-20.73,-21.13,0,*76
1529266065.83,58645,18.38,74058.5,2.41,-20.49,-20.93,0,*77
1529266067.1,58646,18.38,74064.3,2.43,-20.59,-21.23,0,*7D
1529266068.39,58647,18.38,74062.5,2.43,-20.79,-21.23,0,*7E
1529266069.65,58648,18.38,74060.3,2.41,-20.79,-21.23,0,*73
1529266070.88,58649,18.38,74064.0,2.41,-20.79,-21.39,0,*79
1529266072.12,58650,18.38,74066.0,2.41,-20.89,-21.27,0,*71
1529266073.35,58651,18.38,74062.3,2.41,-20.73,-21.27,0,*75
1529266074.59,58652,18.38,74064.0,2.41,-20.63,-21.23,0,*73
1529266075.84,58653,18.38,74062.5,2.41,-20.79,-21.27,0,*7D
1529266077.05,58654,18.38,74064.8,2.41,-20.89,-21.43,0,*77
1529266078.28,58655,18.38,74064.5,2.41,-20.93,-21.53,0,*7C
1529266079.48,58656,18.38,74068.8,2.41,-20.89,-21.43,0,*75
1529266080.69,58657,18.38,74068.0,2.41,-20.89,-21.39,0,*79
1529266081.92,58658,18.38,74064.8,2.41,-20.93,-21.53,0,*71
1529266083.17,58659,18.38,74070.3,2.41,-21.03,-21.57,0,*7C
1529266084.42,58660,18.38,74062.8,2.39,-20.99,-21.63,0,*7C
1529266085.67,58661,18.38,74066.0,2.41,-21.03,-21.57,0,*77
1529266086.9,58662,18.38,74062.8,2.39,-20.93,-21.47,0,*72
1529266088.17,58663,18.38,74062.8,2.39,-20.83,-21.33,0,*71
1529266089.39,58664,18.38,74066.5,2.39,-20.93,-21.43,0,*70
1529266090.62,58665,18.38,74060.8,2.37,-21.03,-21.63,0,*75
1529266091.85,58666,18.38,74058.8,2.37,-20.99,-21.47,0,*72
1529266093.1,58667,18.38,74058.5,2.39,-20.83,-21.43,0,*72
1529266094.37,58668,18.38,74056.0,2.39,-20.79,-21.33,0,*7F
1529266095.58,58669,18.38,74058.8,2.37,-20.89,-21.47,0,*7C
1529266096.83,58670,18.38,74056.8,2.39,-20.83,-21.43,0,*74
1529266098.04,58671,18.38,74060.8,2.37,-20.89,-21.47,0,*75
1529266099.24,58672,18.38,74060.3,2.37,-20.89,-21.39,0,*7F